This demonstration page uses our WeatherBlox Daily Observations layout. Learn more.

Left ArrowRight Arrow

Hourly Observations for March 22, 2020

Temp ( °F °C ) Dew Point ( °F °C ) Humidity (%) Winds ( mph kmh ) Pressure ( in mb ) Visibility ( mi km ) Precip ( " mm )
12:54 am 00:54 Clear 38 3.3 26 -3.3 62 62 SSE 9 15 30.28 1025 10 16.0934 0 0
1:54 am 01:54 Clear 37 2.8 27 -2.8 67 67 S 12 19 30.27 1025 10 16.0934 0 0
2:54 am 02:54 Clear 34 1.1 27 -2.8 76 76 SSE 8 13 30.23 1024 10 16.0934 0 0
3:54 am 03:54 Clear 33 0.6 26 -3.3 75 75 SSE 7 11 30.22 1023 10 16.0934 0 0
4:54 am 04:54 Clear 32 0 26 -3.3 79 79 SE 5 7 30.2 1023 10 16.0934 0 0
5:54 am 05:54 Clear 35 1.7 27 -2.8 72 72 SE 5 7 30.2 1023 10 16.0934 0 0
6:54 am 06:54 Cloudy 37 2.8 28 -2.2 70 70 SE 10 17 30.2 1023 10 16.0934 0 0
7:54 am 07:54 Cloudy 38 3.3 28 -2.2 68 68 SSE 9 15 30.2 1023 10 16.0934 0 0
8:54 am 08:54 Mostly Sunny 39 3.9 29 -1.7 67 67 SE 14 22 30.18 1022 10 16.0934 0 0
9:54 am 09:54 Mostly Cloudy 40 4.4 31 -0.6 70 70 SSE 16 26 30.16 1022 10 16.0934 0 0
10:29 am 10:29 Cloudy 40 4.4 32 0 73 73 SSE 14 22 30.19 1022 10 16.0934 0 0
10:54 am 10:54 Cloudy 41 5 33 0.6 73 73 SSE 12 19 30.17 1022 10 16.0934 0 0
11:01 am 11:01 Cloudy 41 5 34 1.1 76 76 SSE 13 20 30.19 1022 10 16.0934 0 0
11:54 am 11:54 Cloudy 41 5 34 1.1 76 76 SE 14 22 30.14 1021 10 16.0934 0 0
12:54 pm 12:54 Cloudy 44 6.7 36 2.2 73 73 SSE 12 19 30.13 1020 10 16.0934 0 0
1:54 pm 13:54 Cloudy 44 6.7 36 2.2 73 73 S 10 17 30.13 1020 10 16.0934 0 0
2:47 pm 14:47 Cloudy 45 7.2 37 2.8 74 74 S 12 19 30.1 1019 10 16.0934 0 0
2:54 pm 14:54 Cloudy 44 6.7 37 2.8 76 76 S 12 19 30.1 1019 10 16.0934 0 0
3:21 pm 15:21 Cloudy 45 7.2 37 2.8 74 74 S 8 13 30.09 1019 10 16.0934 0 0
3:54 pm 15:54 Cloudy 45 7.2 38 3.3 77 77 S 8 13 30.08 1019 10 16.0934 0 0
4:04 pm 16:04 Cloudy 45 7.2 38 3.3 77 77 SE 7 11 30.07 1018 10 16.0934 0 0
4:42 pm 16:42 Cloudy 45 7.2 38 3.3 77 77 SSE 9 15 30.06 1018 10 16.0934 0 0
4:51 pm 16:51 Cloudy 45 7 37 3 76 76 SSE 8 13 30.07 1018 10 16.0934 0 0
4:54 pm 16:54 Cloudy 45 7.2 38 3.3 77 77 SSE 8 13 30.06 1018 10 16.0934 0 0
5:26 pm 17:26 Cloudy 45 7.2 38 3.3 77 77 SE 7 11 30.06 1018 10 16.0934 0 0
5:34 pm 17:34 Cloudy 45 7.2 38 3.3 77 77 SE 8 13 30.06 1018 10 16.0934 0 0
5:51 pm 17:51 Cloudy 45 7 37 3 76 76 SE 7 11 30.07 1018 10 16.0934 0 0
5:54 pm 17:54 Cloudy 45 7.2 38 3.3 77 77 SE 9 15 30.06 1018 10 16.0934 0 0
6:11 pm 18:11 Cloudy 45 7.2 39 3.9 80 80 SSE 7 11 30.06 1018 10 16.0934 0 0
6:33 pm 18:33 Cloudy 45 7.2 38 3.3 77 77 SSE 9 15 30.06 1018 10 16.0934 0 0
6:42 pm 18:42 Cloudy 45 7.2 38 3.3 77 77 SSE 9 15 30.06 1018 10 16.0934 0 0
6:54 pm 18:54 Cloudy 45 7.2 38 3.3 77 77 SSE 9 15 30.06 1018 10 16.0934 0 0
7:54 pm 19:54 Cloudy 44 6.7 38 3.3 79 79 S 8 13 30.07 1018 10 16.0934 0 0
8:06 pm 20:06 Cloudy 44 6.7 38 3.3 79 79 S 7 11 30.1 1019 10 16.0934 0 0
8:18 pm 20:18 Cloudy 44 6.7 38 3.3 79 79 S 7 11 30.1 1019 10 16.0934 0 0
8:54 pm 20:54 Cloudy 44 6.7 38 3.3 79 79 S 7 11 30.09 1019 10 16.0934 0 0
9:54 pm 21:54 Cloudy 43 6.1 38 3.3 82 82 S 9 15 30.11 1020 10 16.0934 0 0
10:54 pm 22:54 Cloudy 43 6.1 38 3.3 82 82 SSW 7 11 30.11 1020 10 16.0934 0 0
11:54 pm 23:54 Cloudy 43 6.1 38 3.3 82 82 SSW 7 11 30.12 1020 10 16.0934 0 0

Powered by AerisWeather